Portada
METAR-TAF:

METAR-TAF

Aeroports :

Rivas, Nicaragua

latitud: 11-25N, longitud: 085-50W, altitud: 53 m

Observació

L'informe es va fer fa 1 hora i 14 minuts, a les 17:00 UTC
Vent 4 kt del Est/Sud-Est
Temperatura 30°C
Humitat 62%
Pressió 1013 hPa
Visibilitat 10 km o més
Núvols disperses a una alçada de 1600 ft

METAR: MNRS 221700Z 11004KT 9999 SCT016 30/22 Q1013

Hora: 12:14 (18:14 UTC)


TAF: manca

Observacions i pronòstics meteorològics de més de 4000 aeroports (METAR i TAF).

Les estacions disponibles són els punts grocs i vermells al mapa.

Posi el ratolí al punt desitjat per veure el nom de l'estació.

Feu clic per veure les observacions i els pronòstics meteorològics.

Per canviar el mapa: feu clic els botons verds amb una creu de color negre per apropar; al botó verd amb un guió per allunyar la imatge; o en les fletxes verdes per a mapes adjacents.


METAR-TAF: